Regional Weather Roundup
Issued by NWS

Home | Current Version | Previous Version | Text Only | Print | Product List | Glossary On
Versions: 1 2 3 4 5 6 7 8 9 10 11 12 13 14 15 16 17 18 19 20 21 22 23 24 25 26 27 28 29 30 31 32 33 34 35 36 37 38 39 40 41 42 43 44 45 46 47 48 49 50
000
ASUS45 KBOI 282210
RWRID

IDAHO REGIONAL WEATHER ROUNDUP
NATIONAL WEATHER SERVICE BOISE ID
400 PM MDT THU MAY 28 2015

NOTE: "FAIR" INDICATES FEW OR NO CLOUDS BELOW 12000 FEET
WITH NO SIGNIFICANT WEATHER AND/OR OBSTRUCTIONS TO VISIBILITY

IDZ012-014-282300-
SOUTHWEST IDAHO


CITY           SKY/WX    TMP DP  RH WIND       PRES   REMARKS
BOISE          SUNNY     78  42  27 W7        30.05F
CALDWELL       SUNNY     77  41  27 N8        30.06F
MOUNTAIN HOME  SUNNY     78  36  22 NW14G20   30.05F
$$

IDZ016-017-282300-
SOUTHCENTRAL IDAHO


CITY           SKY/WX    TMP DP  RH WIND       PRES   REMARKS
BURLEY         SUNNY     69  43  38 W15G24    30.09F
JEROME         SUNNY     71  38  29 SW8G16    30.10F
TWIN FALLS     SUNNY     72  37  28 W10       30.09F
$$

IDZ019>023-282300-
SOUTHEAST IDAHO


CITY           SKY/WX    TMP DP  RH WIND       PRES   REMARKS
IDAHO FALLS    PTSUNNY   62  45  53 NE7       30.14R
POCATELLO      CLOUDY    64  42  44 N6        30.13R
REXBURG        CLOUDY    56  49  77 VRB3      30.14S
$$

IDZ006-010-011-018-031-032-282300-
CENTRAL IDAHO MOUNTAINS


CITY           SKY/WX    TMP DP  RH WIND       PRES   REMARKS
MCCALL         MOSUNNY   66  40  38 NW9       30.12F
HAILEY         MOSUNNY   66  43  42 S12       30.13F
STANLEY          N/A     65  36  34 NW9       30.18F
SALMON         PTSUNNY   64  45  48 N15       30.10R
CHALLIS        PTSUNNY   68  39  34 N3        30.12F
$$

IDZ002-004-006-007-026-282300-
NORTHERN IDAHO


CITY           SKY/WX    TMP DP  RH WIND       PRES   REMARKS
LEWISTON       SUNNY     81  44  27 E8        30.03F
LOWELL           N/A     80  47  31 SE3       30.02F
COEUR D`ALENE  PTSUNNY   79  48  34 CALM      30.04F
MULLAN PASS    CLOUDY    51  44  77 W5        30.21R
$$



USA.gov is the U.S. government's official web portal to all federal, state and local government web resources and services.